Date String (YYYY-MM-DD hh:mm:ss) UTC,Instrument flags,absolute air pressure of the measurement (hPa),sample flow rate (lpm),inlet stack bypass flow (lpm),air temperature of the measurement (°C),ambient temperature measured by the external sensor (°C),aerosol sample conditioner tube jacket temperature (°C),OPC LED temperature (°C),internal box temperature (°C),relative humidity of the measurement (%),span deviation,mass concentration of particles derived from Lorenz-Mie calculation of OPC scattering (μg/m³),mass concentration of particles derived from Lorenz-Mie calculation of OPC scattering (μg/m³),mass concentration of particles derived from Lorenz-Mie calculation of OPC scattering (μg/m³)
DateTimeUTC,F1_M11,P_M11,Q1_M11,Q2_M11,T1_M11,T2_M11,T3_M11,T4_M11,T5_M11,U1_M11,ZSPAN_M11,X0_M11,X2_M11,X1_M11
2024-02-18 12:00:00,SystemResetWarning,0826.8,5.00,000.00,018.4,017.6,000.0,026.9,020.0,08.9,0000.0,0002.30,0000.89,0000.71
2024-02-18 12:01:00,SystemResetWarning,0826.8,4.99,000.00,018.4,017.6,000.0,026.9,020.0,08.9,0000.0,0002.36,0000.87,0000.70
2024-02-18 12:02:00,SystemResetWarning,0826.7,5.00,000.00,018.4,017.8,000.0,027.0,020.2,08.8,0000.0,0002.34,0000.86,0000.69
2024-02-18 12:03:00,SystemResetWarning,0826.8,5.01,000.00,018.6,018.6,000.0,027.1,020.7,08.7,0000.0,0002.27,0000.84,0000.68
2024-02-18 12:04:00,SystemResetWarning,0826.9,4.99,000.00,018.8,019.1,000.0,027.1,021.0,08.7,0000.0,0002.24,0000.82,0000.66
2024-02-18 12:05:00,SystemResetWarning,0826.7,4.99,000.00,018.8,018.9,000.0,027.1,020.7,08.7,0000.0,0002.27,0000.82,0000.64
2024-02-18 12:06:00,SystemResetWarning,0826.8,5.00,000.00,018.7,018.8,000.0,027.0,020.5,08.7,0000.0,0002.28,0000.81,0000.63
2024-02-18 12:07:00,SystemResetWarning,0826.8,5.00,000.00,018.7,018.6,000.0,027.0,020.3,08.7,0000.0,0002.25,0000.79,0000.61
2024-02-18 12:08:00,SystemResetWarning,0826.8,5.00,000.00,018.6,018.4,000.0,026.9,020.2,08.7,0000.0,0002.10,0000.75,0000.59
2024-02-18 12:09:00,SystemResetWarning,0826.8,5.00,000.00,018.6,018.2,000.0,026.9,020.1,08.8,0000.0,0002.13,0000.76,0000.58
2024-02-18 12:10:00,SystemResetWarning,0826.8,5.00,000.00,018.5,018.1,000.0,026.9,020.0,08.8,0000.0,0002.10,0000.74,0000.58
2024-02-18 12:11:00,SystemResetWarning,0826.8,5.00,000.00,018.5,018.0,000.0,026.9,020.0,08.7,0000.0,0001.26,0000.73,0000.57
2024-02-18 12:12:00,SystemResetWarning,0826.7,5.00,000.00,018.5,017.9,000.0,026.9,020.0,08.8,0000.0,0001.22,0000.77,0000.58
2024-02-18 12:13:00,SystemResetWarning,0826.7,5.00,000.00,018.4,017.8,000.0,026.9,020.0,08.8,0000.0,0001.34,0000.78,0000.58
2024-02-18 12:14:00,SystemResetWarning,0826.7,5.00,000.00,018.4,017.7,000.0,026.9,020.0,08.9,0000.0,0001.49,0000.78,0000.58
2024-02-18 12:15:00,SystemResetWarning,0826.7,5.00,000.00,018.4,017.6,000.0,026.9,020.0,09.0,0000.0,0001.48,0000.78,0000.58
2024-02-18 12:16:00,SystemResetWarning,0826.6,4.99,000.00,018.4,017.6,000.0,026.9,020.0,09.0,0000.0,0001.43,0000.77,0000.59
2024-02-18 12:17:00,SystemResetWarning,0826.6,5.00,000.00,018.4,017.6,000.0,026.9,020.1,09.0,0000.0,0001.40,0000.76,0000.59
2024-02-18 12:18:00,SystemResetWarning,0826.6,5.01,000.00,018.5,018.2,000.0,027.1,020.4,09.0,0000.0,0002.11,0000.81,0000.60
2024-02-18 12:19:00,SystemResetWarning,0826.7,5.01,000.00,018.7,018.9,000.0,027.1,020.9,08.9,0000.0,0002.39,0000.83,0000.61
2024-02-18 12:20:00,SystemResetWarning,0826.6,4.99,000.00,018.8,019.0,000.0,027.1,020.8,09.0,0000.0,0002.33,0000.80,0000.61
2024-02-18 12:21:00,SystemResetWarning,0826.6,4.99,000.00,018.8,018.8,000.0,027.0,020.5,09.0,0000.0,0002.38,0000.79,0000.61
2024-02-18 12:22:00,SystemResetWarning,0826.6,5.00,000.00,018.7,018.6,000.0,027.0,020.3,09.1,0000.0,0002.36,0000.79,0000.62
2024-02-18 12:23:00,SystemResetWarning,0826.6,5.00,000.00,018.6,018.4,000.0,027.0,020.2,09.2,0000.0,0002.26,0000.77,0000.62
2024-02-18 12:24:00,SystemResetWarning,0826.6,5.00,000.00,018.6,018.2,000.0,026.9,020.1,09.8,0000.0,0002.14,0000.76,0000.63
2024-02-18 12:25:00,SystemResetWarning,0826.6,5.00,000.00,018.6,018.1,000.0,026.9,020.1,10.0,0000.0,0002.00,0000.76,0000.63
2024-02-18 12:26:00,SystemResetWarning,0826.6,5.00,000.00,018.5,017.9,000.0,026.9,020.0,10.1,0000.0,0002.04,0000.78,0000.63
2024-02-18 12:27:00,SystemResetWarning,0826.6,5.00,000.00,018.5,017.9,000.0,026.9,020.0,10.1,0000.0,0002.10,0000.80,0000.64
2024-02-18 12:28:00,SystemResetWarning,0826.6,5.00,000.00,018.4,017.8,000.0,026.9,020.0,10.2,0000.0,0002.14,0000.81,0000.64
2024-02-18 12:29:00,SystemResetWarning,0826.7,5.00,000.00,018.4,017.7,000.0,026.9,020.0,10.3,0000.0,0001.91,0000.81,0000.65
2024-02-18 12:30:00,SystemResetWarning,0826.7,5.01,000.00,018.4,017.6,000.0,026.9,020.0,10.5,0000.0,0001.34,0000.81,0000.66
2024-02-18 12:31:00,SystemResetWarning,0826.7,5.00,000.00,018.4,017.6,000.0,026.9,020.0,10.7,0000.0,0001.42,0000.86,0000.69
2024-02-18 12:32:00,SystemResetWarning,0826.6,5.00,000.00,018.4,017.6,000.0,027.0,020.1,10.8,0000.0,0001.39,0000.90,0000.72
2024-02-18 12:33:00,SystemResetWarning,0826.6,5.01,000.00,018.5,018.2,000.0,027.1,020.5,10.8,0000.0,0001.44,0000.95,0000.78
2024-02-18 12:34:00,SystemResetWarning,0826.7,4.99,000.00,018.7,019.0,000.0,027.1,020.9,10.6,0000.0,0001.52,0001.02,0000.85
2024-02-18 12:35:00,SystemResetWarning,0826.7,4.99,000.00,018.8,019.0,000.0,027.1,020.8,10.6,0000.0,0001.62,0001.10,0000.92
2024-02-18 12:36:00,SystemResetWarning,0826.6,4.99,000.00,018.7,018.8,000.0,027.0,020.5,10.7,0000.0,0001.81,0001.20,0000.99
2024-02-18 12:37:00,SystemResetWarning,0826.6,5.00,000.00,018.7,018.6,000.0,027.0,020.3,10.8,0000.0,0001.96,0001.28,0001.06
2024-02-18 12:38:00,SystemResetWarning,0826.6,5.01,000.00,018.6,018.4,000.0,027.0,020.2,10.9,0000.0,0001.99,0001.34,0001.13
2024-02-18 12:39:00,SystemResetWarning,0826.6,5.00,000.00,018.6,018.2,000.0,026.9,020.1,10.8,0000.0,0002.17,0001.41,0001.21
2024-02-18 12:40:00,SystemResetWarning,0826.6,4.99,000.00,018.5,018.1,000.0,026.9,020.0,10.7,0000.0,0002.29,0001.49,0001.28
2024-02-18 12:41:00,SystemResetWarning,0826.6,4.99,000.00,018.5,018.0,000.0,026.9,020.0,10.7,0000.0,0002.92,0001.61,0001.38
2024-02-18 12:42:00,SystemResetWarning,0826.6,5.00,000.00,018.5,017.9,000.0,026.9,020.0,10.7,0000.0,0003.57,0001.71,0001.46
2024-02-18 12:43:00,SystemResetWarning,0826.6,5.00,000.00,018.4,017.8,000.0,027.0,020.0,10.6,0000.0,0003.57,0001.76,0001.52
2024-02-18 12:44:00,SystemResetWarning,0826.6,5.00,000.00,018.4,017.7,000.0,027.0,020.0,10.6,0000.0,0003.67,0001.81,0001.56
2024-02-18 12:45:00,SystemResetWarning,0826.6,5.01,000.00,018.4,017.6,000.0,027.0,020.0,10.6,0000.0,0003.81,0001.87,0001.61
2024-02-18 12:46:00,SystemResetWarning,0826.6,5.01,000.00,018.4,017.6,000.0,027.0,020.0,10.6,0000.0,0003.86,0001.92,0001.65
2024-02-18 12:47:00,SystemResetWarning,0826.6,5.00,000.00,018.4,017.6,000.0,027.0,020.1,10.7,0000.0,0003.84,0001.94,0001.69
2024-02-18 12:48:00,SystemResetWarning,0826.6,5.01,000.00,018.5,018.3,000.0,027.1,020.5,10.5,0000.0,0003.75,0001.93,0001.71
2024-02-18 12:49:00,SystemResetWarning,0826.6,4.99,000.00,018.7,019.0,000.0,027.2,020.9,10.4,0000.0,0003.80,0001.97,0001.74
2024-02-18 12:50:00,SystemResetWarning,0826.6,4.98,000.00,018.8,019.0,000.0,027.1,020.8,10.3,0000.0,0003.76,0002.01,0001.76
2024-02-18 12:51:00,SystemResetWarning,0826.6,5.01,000.00,018.8,018.8,000.0,027.1,020.6,10.3,0000.0,0003.63,0002.00,0001.75
2024-02-18 12:52:00,SystemResetWarning,0826.6,5.01,000.00,018.7,018.6,000.0,027.0,020.4,10.3,0000.0,0003.06,0001.94,0001.73
2024-02-18 12:53:00,SystemResetWarning,0826.6,5.00,000.00,018.7,018.5,000.0,027.0,020.2,10.6,0000.0,0002.46,0001.91,0001.72
2024-02-18 12:54:00,SystemResetWarning,0826.5,4.99,000.00,018.6,018.3,000.0,027.0,020.1,10.8,0000.0,0002.50,0001.91,0001.71
2024-02-18 12:55:00,SystemResetWarning,0826.4,5.00,000.00,018.6,018.2,000.0,026.9,020.0,10.9,0000.0,0002.50,0001.90,0001.70
2024-02-18 12:56:00,SystemResetWarning,0826.4,5.01,000.00,018.5,018.0,000.0,026.9,020.0,10.9,0000.0,0002.42,0001.89,0001.69
2024-02-18 12:57:00,SystemResetWarning,0826.3,5.01,000.00,018.5,017.9,000.0,026.9,020.0,10.8,0000.0,0002.44,0001.87,0001.66
2024-02-18 12:58:00,SystemResetWarning,0826.4,5.00,000.00,018.5,017.8,000.0,027.0,020.0,10.7,0000.0,0002.47,0001.86,0001.63
2024-02-18 12:59:00,SystemResetWarning,0826.4,4.99,000.00,018.4,017.8,000.0,027.0,020.0,10.6,0000.0,0002.61,0001.87,0001.62
